ONEWEB-0120 (47266 NORAD) Tracking and Keplerian Element Data

This shows tracking and keplerian element data for the satellite.

Feedback or suggestion? Click here.




ElementValue
Catalog47266
NameONEWEB-0120
Epoch Orbit173
Epoch Day60.91667824
Epoch Year2021
RAAN16.1815
Inclination87.632
Eccentricity0.0011418
Argument of Perigee38.6036
Mean Anonmoly18.0936
Mean Motion13.97744919
Decay Rate-0.00022689
L11 47266U 20100J 21060.91667824 -.00022689 00000-0 -16127-1 0 9997
L22 47266 87.6320 16.1815 0011418 38.6036 18.0936 13.97744919 1738

Live tracking and technical data element details for ONEWEB-0120 (NORAD 47266). ONEWEB-0120 can be tracked NOW for your location showing map with azimuth and elevation plus other details from your city location.

Track the satellite on the map from your city or location and see movement details for azimuth, elevation, latitude, longitude, range, height, and movement on the map or in text.







IsCatalogInMostPopularTable: catalog: 47266, numindb: 25
Update: records affected: 1



GetName: 47266 ONEWEB-0120

Hit Count: updated at: Tue, 02 Mar 2021 14:07:23 GMT